Weather History for Drummond Island, MI

Change the Weather History Date:

Sunday, December 16, 2012

  Actual Average (KCIU) Record (KCIU)
Temperature  
Mean Temperature 34 °F -  
Max Temperature 36 °F 31 °F 50 °F (1984)
Min Temperature 32 °F 11 °F -16 °F (2013)
Degree Days  
Heating Degree Days 31    
Moisture  
Dew Point 35 °F    
Average Humidity 100    
Maximum Humidity 100    
Minimum Humidity 99    
Precipitation  
Precipitation 0.00 in - - ()
Sea Level Pressure  
Sea Level Pressure 29.56 in    
Wind  
Wind Speed 6 mph (East)    
Max Wind Speed 12 mph    
Max Gust Speed 18 mph    
Visibility 3 miles    
Events Fog , Rain , Snow    
Averages and records for this station are not official NWS values.
T = Trace of Precipitation, MM = Missing Value Source: NWS Daily Summary

Daily Weather History Graph

Daily Weather History Graph

Search for Another Location

Airport:

Trip Planner

Search our weather history database for the weather conditions in past years. The results will help you decide how hot, cold, wet, or windy it might be!

Date:

Astronomy

Dec. 16, 2012 Rise Set
Actual Time 8:11 AM EST 4:50 PM EST
Civil Twilight 7:36 AM EST 5:25 PM EST
Nautical Twilight 6:58 AM EST 6:03 PM EST
Astronomical Twilight 6:22 AM EST 6:39 PM EST
Moon 10:34 AM EST (12/16) 9:14 PM EST (12/16)
Length of Visible Light 9h 48m
Length of Day
8h 39m
Waxing Crescent, 16% of the Moon is Illuminated
Dec 16
Waxing Crescent
Dec 20
First Quarter
Dec 28
Full
Jan 4
Last Quarter
Jan 11
New

Hourly Weather History & Observations

Time (EST) Temp. Windchill Dew Point Humidity Pressure Visibility Wind Dir Wind Speed Gust Speed Precip Events Conditions
12:15 AM 32.7 °F 25.7 °F 32.7 °F 100% 29.71 in 2.5 mi East 8.1 mph - N/A Snow Light Snow
12:35 AM 32.9 °F 25.3 °F 32.9 °F 100% 29.70 in 2.5 mi ESE 9.2 mph - N/A Snow Light Snow
12:55 AM 32.9 °F 26.7 °F 32.9 °F 100% 29.69 in 2.5 mi East 6.9 mph 17.3 mph N/A Snow Light Snow
1:15 AM 32.9 °F 25.3 °F 32.9 °F 100% 29.68 in 2.5 mi ESE 9.2 mph 16.1 mph N/A Snow Light Snow
1:55 AM 33.1 °F 24.9 °F 32.9 °F 99% 29.66 in 5.0 mi East 10.4 mph 16.1 mph N/A   Overcast
2:15 AM 33.1 °F 24.4 °F 32.9 °F 99% 29.65 in 5.0 mi ESE 11.5 mph 18.4 mph N/A Snow Light Snow
2:34 AM 33.3 °F 25.7 °F 32.9 °F 99% 29.65 in 4.0 mi East 9.2 mph 18.4 mph N/A Snow Light Snow
2:55 AM 33.1 °F 24.9 °F 32.9 °F 99% 29.65 in 3.0 mi ESE 10.4 mph - N/A Snow Light Snow
3:15 AM 32.9 °F 24.7 °F 32.9 °F 100% 29.64 in 2.5 mi ESE 10.4 mph 16.1 mph N/A Snow Light Snow
3:55 AM 32.9 °F 24.7 °F 32.9 °F 100% 29.62 in 7.0 mi ESE 10.4 mph 17.3 mph N/A Snow Light Snow
4:14 AM 33.1 °F 24.9 °F 32.9 °F 99% 29.61 in 5.0 mi East 10.4 mph 16.1 mph N/A Snow Light Snow
4:35 AM 33.1 °F 26.1 °F 32.9 °F 99% 29.61 in 5.0 mi East 8.1 mph - N/A Snow Light Snow
4:55 AM 32.9 °F 25.9 °F 32.9 °F 100% 29.60 in 5.0 mi East 8.1 mph - N/A Snow Light Snow
5:15 AM 33.1 °F 26.1 °F 33.1 °F 100% 29.59 in 7.0 mi East 8.1 mph - N/A Snow Light Snow
5:35 AM 33.3 °F 25.7 °F 33.3 °F 100% 29.58 in 7.0 mi East 9.2 mph - N/A Snow Light Snow
5:54 AM 33.3 °F 27.1 °F 33.3 °F 100% 29.58 in 10.0 mi East 6.9 mph - N/A Snow Light Snow
6:15 AM 33.3 °F 27.1 °F 33.3 °F 100% 29.57 in 10.0 mi East 6.9 mph - N/A   Overcast
6:35 AM 33.4 °F 27.3 °F 33.4 °F 100% 29.57 in 10.0 mi East 6.9 mph - N/A   Overcast
6:55 AM 33.8 °F 27.0 °F 33.8 °F 100% 29.57 in 10.0 mi East 8.1 mph - N/A   Overcast
7:15 AM 34.0 °F 27.2 °F 34.0 °F 100% 29.57 in 10.0 mi East 8.1 mph - N/A   Overcast
7:35 AM 34.2 °F 30.0 °F 34.2 °F 100% 29.56 in 7.0 mi East 4.6 mph - N/A Rain Light Rain
8:15 AM 34.3 °F 27.0 °F 34.3 °F 100% 29.56 in 5.0 mi East 9.2 mph - N/A   Overcast
8:35 AM 34.3 °F 28.4 °F 34.3 °F 100% 29.55 in 4.0 mi East 6.9 mph - N/A   Overcast
8:55 AM 34.7 °F 28.1 °F 34.7 °F 100% 29.55 in 4.0 mi East 8.1 mph - N/A   Overcast
9:15 AM 34.7 °F 28.8 °F 34.7 °F 100% 29.55 in 3.0 mi ENE 6.9 mph - N/A   Overcast
9:35 AM 34.9 °F 30.8 °F 34.9 °F 100% 29.56 in 2.5 mi ENE 4.6 mph - N/A   Overcast
9:55 AM 34.2 °F 28.2 °F 34.2 °F 100% 29.55 in 3.0 mi ENE 6.9 mph - N/A   Overcast
10:15 AM 34.2 °F 27.5 °F 34.2 °F 100% 29.55 in 3.0 mi ENE 8.1 mph - N/A   Overcast
10:34 AM 34.7 °F 28.1 °F 34.7 °F 100% 29.55 in 3.0 mi East 8.1 mph - N/A   Overcast
10:55 AM 34.9 °F 29.9 °F 34.9 °F 100% 29.55 in 2.5 mi East 5.8 mph - N/A   Overcast
11:15 AM 35.4 °F 31.5 °F 35.4 °F 100% 29.55 in 2.0 mi ENE 4.6 mph - N/A   Overcast
11:34 AM 35.6 °F 30.7 °F 35.6 °F 100% 29.55 in 1.8 mi East 5.8 mph - N/A   Overcast
11:55 AM 36.0 °F 33.3 °F 36.0 °F 100% 29.55 in 1.2 mi East 3.5 mph - N/A   Overcast
12:15 PM 36.0 °F 32.1 °F 36.0 °F 100% 29.53 in 1.0 mi ENE 4.6 mph - N/A   Overcast
12:35 PM 36.0 °F 32.1 °F 36.0 °F 100% 29.53 in 0.8 mi East 4.6 mph - N/A   Overcast
12:55 PM 35.8 °F 31.9 °F 35.8 °F 100% 29.53 in 0.8 mi East 4.6 mph - N/A   Overcast
1:14 PM 35.6 °F 31.7 °F 35.6 °F 100% 29.53 in 0.5 mi ENE 4.6 mph - N/A Fog Fog
1:35 PM 35.8 °F - 35.8 °F 100% 29.53 in 0.5 mi Calm Calm - N/A Fog Fog
1:55 PM 35.8 °F - 35.8 °F 100% 29.52 in 0.5 mi Calm Calm - N/A Fog Fog
2:15 PM 36.0 °F - 36.0 °F 100% 29.52 in 0.2 mi Calm Calm - N/A Fog Fog
2:35 PM 36.0 °F 32.1 °F 36.0 °F 100% 29.52 in 0.2 mi ENE 4.6 mph - N/A Fog Fog
2:54 PM 35.8 °F - 35.8 °F 100% 29.52 in 0.2 mi Calm Calm - N/A Fog Fog
3:15 PM 35.6 °F - 35.6 °F 100% 29.52 in 0.2 mi Calm Calm - N/A Fog Fog
3:35 PM 35.6 °F 32.8 °F 35.6 °F 100% 29.52 in 0.2 mi NE 3.5 mph - N/A Fog Fog
3:54 PM 35.6 °F 32.8 °F 35.6 °F 100% 29.52 in 0.2 mi ENE 3.5 mph - N/A Fog Fog
4:15 PM 35.6 °F 32.8 °F 35.6 °F 100% 29.52 in 0.2 mi ENE 3.5 mph - N/A Fog Fog
4:34 PM 35.6 °F 31.7 °F 35.6 °F 100% 29.52 in 0.2 mi NE 4.6 mph - N/A   Light Drizzle
5:15 PM 35.6 °F - 35.6 °F 100% 29.53 in 0.5 mi Calm Calm - N/A   Light Drizzle
5:34 PM 35.6 °F - 35.6 °F 100% 29.53 in 0.8 mi Calm Calm - N/A   Light Drizzle
5:55 PM 35.8 °F - 35.8 °F 100% 29.53 in 0.8 mi Calm Calm - N/A   Overcast
6:15 PM 35.6 °F - 35.6 °F 100% 29.53 in 0.8 mi Calm Calm - N/A   Light Drizzle
6:35 PM 35.8 °F - 35.8 °F 100% 29.54 in 0.8 mi Calm Calm - N/A   Light Drizzle
6:55 PM 35.8 °F - 35.8 °F 100% 29.54 in 0.8 mi Calm Calm - N/A   Overcast
7:15 PM 35.6 °F - 35.6 °F 100% 29.54 in 0.8 mi Calm Calm - N/A   Overcast
7:35 PM 35.6 °F - 35.6 °F 100% 29.54 in 0.5 mi Calm Calm - N/A Fog Fog
7:55 PM 35.6 °F - 35.6 °F 100% 29.55 in 0.5 mi Calm Calm - N/A Fog Fog
8:15 PM 35.8 °F - 35.8 °F 100% 29.54 in 0.8 mi Calm Calm - N/A   Light Drizzle
8:35 PM 35.8 °F - 35.8 °F 100% 29.54 in 0.8 mi Calm Calm - N/A   Overcast
8:55 PM 36.0 °F - 36.0 °F 100% 29.54 in 0.8 mi Calm Calm - N/A   Overcast
9:14 PM 35.8 °F - 35.8 °F 100% 29.54 in 0.5 mi Calm Calm - N/A Fog Fog
9:35 PM 35.8 °F - 35.8 °F 100% 29.54 in 0.5 mi Calm Calm - N/A Rain Light Rain
9:55 PM 35.8 °F - 35.8 °F 100% 29.55 in 0.5 mi Calm Calm - N/A   Drizzle
10:14 PM 35.8 °F - 35.8 °F 100% 29.54 in 0.8 mi Calm Calm - N/A   Overcast
10:35 PM 35.8 °F - 35.8 °F 100% 29.54 in 0.8 mi Calm Calm - N/A   Overcast
10:55 PM 36.0 °F 32.1 °F 36.0 °F 100% 29.54 in 0.8 mi East 4.6 mph - N/A   Overcast
11:15 PM 36.0 °F - 36.0 °F 100% 29.54 in 0.5 mi Calm Calm - N/A Fog Fog
11:35 PM 36.0 °F - 36.0 °F 100% 29.54 in 0.5 mi Calm Calm - N/A Fog Fog
11:55 PM 36.0 °F - 36.0 °F 100% 29.54 in 0.5 mi Calm Calm - N/A Fog Fog